Change the Weather History Date:

Sunday, March 31, 2013

  Actual Average (KEGE) Record (KEGE)
Temperature  
Mean Temperature 42 °F -  
Max Temperature 59 °F 52 °F 71 °F (2012)
Min Temperature 24 °F 21 °F 12 °F (1977)
Degree Days  
Heating Degree Days 24    
Moisture  
Dew Point 25 °F    
Average Humidity 65    
Maximum Humidity 93    
Minimum Humidity 20    
Precipitation  
Precipitation 0.00 in - - ()
Sea Level Pressure  
Sea Level Pressure 30.18 in    
Wind  
Wind Speed 1 mph (ENE)    
Max Wind Speed 9 mph    
Max Gust Speed 17 mph    
Visibility 8 miles    
Events Fog    
Averages and records for this station are not official NWS values.
T = Trace of Precipitation, MM = Missing Value Source: NWS Daily Summary

Daily Weather History Graph

Daily Weather History Graph

Search for Another Location

Airport or City:

Trip Planner

Search our weather history database for the weather conditions in past years. The results will help you decide how hot, cold, wet, or windy it might be!

Date:

Astronomy

Mar. 31, 2013 Rise Set
Actual Time 6:50 AM MDT 7:29 PM MDT
Civil Twilight 6:23 AM MDT 7:56 PM MDT
Nautical Twilight 5:51 AM MDT 8:28 PM MDT
Astronomical Twilight 5:17 AM MDT 9:02 PM MDT
Moon No Moon Rise 9:40 AM MDT (3/31)
Length of Visible Light 13h 33m
Length of Day
12h 38m
Waning Gibbous, 77% of the Moon is Illuminated
Mar 31
Waning Gibbous
Apr 2
Last Quarter
Apr 10
New
Apr 18
First Quarter
Apr 25
Full

Hourly Weather History & Observations

Time (MDT) Temp. Windchill Dew Point Humidity Pressure Visibility Wind Dir Wind Speed Gust Speed Precip Events Conditions
12:14 AM 30.2 °F - 28.4 °F 93% 30.26 in 10.0 mi Calm Calm - N/A   Clear
12:34 AM 28.4 °F - 24.8 °F 86% 30.26 in 10.0 mi Calm Calm - N/A   Clear
12:55 AM 30.2 °F - 28.4 °F 93% 30.26 in 10.0 mi Calm Calm - N/A   Clear
1:15 AM 28.4 °F - 26.6 °F 93% 30.27 in 10.0 mi Calm Calm - N/A   Clear
1:35 AM 28.4 °F - 26.6 °F 93% 30.27 in 10.0 mi Calm Calm - N/A   Clear
1:55 AM 28.4 °F - 26.6 °F 93% 30.26 in 10.0 mi Calm Calm - N/A   Clear
2:14 AM 28.4 °F - 24.8 °F 86% 30.26 in 10.0 mi Calm Calm - N/A   Clear
2:35 AM 26.6 °F - 24.8 °F 93% 30.26 in 10.0 mi Calm Calm - N/A   Clear
2:55 AM 26.6 °F - 24.8 °F 93% 30.25 in 10.0 mi Calm Calm - N/A   Clear
3:15 AM 26.6 °F - 24.8 °F 93% 30.24 in 10.0 mi Calm Calm - N/A   Clear
3:35 AM 24.8 °F - 23.0 °F 93% 30.24 in 10.0 mi Calm Calm - N/A   Clear
3:55 AM 24.8 °F - 23.0 °F 93% 30.24 in 10.0 mi Calm Calm - N/A   Clear
4:15 AM 24.8 °F - 23.0 °F 93% 30.24 in 10.0 mi Calm Calm - N/A   Clear
4:35 AM 24.8 °F - 23.0 °F 93% 30.24 in 10.0 mi Calm Calm - N/A   Scattered Clouds
4:55 AM 24.8 °F - 23.0 °F 93% 30.24 in 10.0 mi Calm Calm - N/A   Mostly Cloudy
5:15 AM 24.8 °F - 23.0 °F 93% 30.24 in 10.0 mi Calm Calm - N/A   Overcast
5:35 AM 26.6 °F - 23.0 °F 86% 30.24 in 4.0 mi Calm Calm - N/A   Overcast
5:55 AM 26.6 °F - 24.8 °F 93% 30.24 in 0.5 mi Calm Calm - N/A Fog Light Freezing Fog
6:15 AM 26.6 °F - 24.8 °F 93% 30.25 in 0.5 mi Calm Calm - N/A Fog Light Freezing Fog
6:34 AM 26.6 °F - 24.8 °F 93% 30.25 in 0.2 mi Calm Calm - N/A Fog Light Freezing Fog
6:54 AM 26.6 °F - 23.0 °F 86% 30.25 in 0.2 mi Calm Calm - N/A Fog Light Freezing Fog
7:14 AM 24.8 °F - 23.0 °F 93% 30.25 in 0.2 mi Calm Calm - N/A Fog Light Freezing Fog
7:35 AM 24.8 °F - 23.0 °F 93% 30.26 in 0.2 mi Calm Calm - N/A Fog Light Freezing Fog
7:55 AM 24.8 °F - 23.0 °F 93% 30.26 in 0.2 mi Calm Calm - N/A Fog Light Freezing Fog
8:15 AM - - - N/A% 30.26 in 0.2 mi Calm Calm - N/A Fog Fog
8:35 AM - - - N/A% 30.26 in 0.2 mi Calm Calm - N/A Fog Fog
8:55 AM - - - N/A% 30.26 in 0.2 mi Calm Calm - N/A Fog Fog
9:15 AM - - - N/A% 30.26 in 0.2 mi Calm Calm - N/A Fog Fog
9:35 AM - - - N/A% 30.25 in 0.2 mi Calm Calm - N/A Fog Fog
9:54 AM - - - N/A% 30.25 in 0.2 mi Calm Calm - N/A Fog Fog
10:15 AM - - - N/A% 30.24 in 1.0 mi Calm Calm - N/A   Overcast
10:35 AM - - - N/A% 30.24 in 10.0 mi Calm Calm - N/A   Scattered Clouds
10:55 AM 33.8 °F - 30.2 °F 87% 30.23 in 10.0 mi Calm Calm - N/A   Clear
11:15 AM 35.6 °F - 30.2 °F 81% 30.22 in 10.0 mi Calm Calm - N/A   Clear
11:35 AM 37.4 °F - 32.0 °F 81% 30.22 in 10.0 mi Calm Calm - N/A   Clear
11:55 AM 39.2 °F - 30.2 °F 70% 30.21 in 10.0 mi Calm Calm - N/A   Clear
12:15 PM 41.0 °F 39.0 °F 32.0 °F 70% 30.21 in 10.0 mi NW 3.5 mph - N/A   Clear
12:35 PM 42.8 °F - 32.0 °F 66% 30.20 in 10.0 mi Calm Calm - N/A   Clear
12:55 PM 46.4 °F 44.3 °F 30.2 °F 53% 30.19 in 10.0 mi ENE 4.6 mph - N/A   Clear
1:15 PM 50.0 °F - 28.4 °F 43% 30.17 in 10.0 mi ESE 4.6 mph - N/A   Clear
1:35 PM 50.0 °F - 30.2 °F 47% 30.16 in 10.0 mi ENE 6.9 mph - N/A   Clear
1:54 PM 51.8 °F - 28.4 °F 41% 30.16 in 10.0 mi NE 6.9 mph - N/A   Clear
2:15 PM 51.8 °F - 28.4 °F 41% 30.15 in 10.0 mi Calm Calm - N/A   Clear
2:35 PM 53.6 °F - 26.6 °F 35% 30.14 in 10.0 mi East 6.9 mph - N/A   Clear
2:55 PM 53.6 °F - 26.6 °F 35% 30.13 in 10.0 mi NNE 5.8 mph - N/A   Clear
3:15 PM 53.6 °F - 23.0 °F 30% 30.12 in 10.0 mi ENE 6.9 mph - N/A   Clear
3:35 PM 55.4 °F - 21.2 °F 26% 30.11 in 10.0 mi NE 3.5 mph - N/A   Clear
3:55 PM 55.4 °F - 23.0 °F 29% 30.10 in 10.0 mi ESE 3.5 mph - N/A   Clear
4:15 PM 55.4 °F - 21.2 °F 26% 30.09 in 10.0 mi ESE 9.2 mph 17.3 mph N/A   Clear
4:35 PM 57.2 °F - 19.4 °F 23% 30.09 in 10.0 mi East 5.8 mph - N/A   Clear
4:55 PM 59.0 °F - 19.4 °F 22% 30.08 in 10.0 mi Calm Calm - N/A   Clear
5:15 PM 55.4 °F - 19.4 °F 25% 30.08 in 10.0 mi East 6.9 mph - N/A   Clear
5:35 PM 55.4 °F - 17.6 °F 23% 30.07 in 10.0 mi South 5.8 mph 9.2 mph N/A   Clear
5:55 PM 55.4 °F - 17.6 °F 23% 30.07 in 10.0 mi East 6.9 mph - N/A   Clear
6:14 PM 55.4 °F - 14.0 °F 20% 30.07 in 10.0 mi West 4.6 mph - N/A   Clear
6:35 PM 55.4 °F - 14.0 °F 20% 30.08 in 10.0 mi NNW 9.2 mph - N/A   Clear
7:15 PM 50.0 °F - 19.4 °F 30% 30.08 in 10.0 mi North 8.1 mph - N/A   Clear
7:35 PM 50.0 °F - 21.2 °F 32% 30.08 in 10.0 mi North 4.6 mph - N/A   Clear
7:55 PM 46.4 °F - 21.2 °F 37% 30.09 in 10.0 mi Calm Calm - N/A   Clear
8:14 PM 42.8 °F - 23.0 °F 46% 30.09 in 10.0 mi Calm Calm - N/A   Clear
8:35 PM 42.8 °F 40.1 °F 23.0 °F 46% 30.10 in 10.0 mi ESE 4.6 mph - N/A   Clear
8:55 PM 41.0 °F 38.0 °F 23.0 °F 49% 30.11 in 10.0 mi East 4.6 mph - N/A   Clear
9:15 PM 37.4 °F 34.9 °F 26.6 °F 65% 30.12 in 10.0 mi ESE 3.5 mph - N/A   Clear
9:35 PM 37.4 °F - 24.8 °F 60% 30.12 in 10.0 mi Calm Calm - N/A   Scattered Clouds
9:54 PM 35.6 °F - 26.6 °F 70% 30.12 in 10.0 mi Calm Calm - N/A   Mostly Cloudy
10:15 PM 35.6 °F 30.7 °F 26.6 °F 70% 30.13 in 10.0 mi East 5.8 mph - N/A   Mostly Cloudy
10:35 PM 35.6 °F 31.7 °F 24.8 °F 65% 30.14 in 10.0 mi East 4.6 mph - N/A   Scattered Clouds
10:55 PM 35.6 °F - 26.6 °F 70% 30.14 in 10.0 mi Calm Calm - N/A   Scattered Clouds
11:15 PM 33.8 °F - 26.6 °F 75% 30.14 in 10.0 mi Calm Calm - N/A   Scattered Clouds
11:35 PM 33.8 °F - 26.6 °F 75% 30.12 in 10.0 mi Calm Calm - N/A   Scattered Clouds
11:55 PM 32.0 °F - 26.6 °F 80% 30.12 in 10.0 mi Calm Calm - N/A   Scattered Clouds